| time (UTC) | temp F | wind direction | speed knots | gust knots | rain 1hr in | rain 24hr in | rain mn in | humidity % | barometer mb |
| 20260505224533 | 80 | 10 | 2.6 | 7.8 | 0.00 | 0.00 | 0.00 | 45 | 1008.3 |
| 20260505221533 | 80 | 12 | 2.6 | 7.0 | 0.00 | 0.00 | 0.00 | 46 | 1008.6 |
| 20260505220107 | 79 | 18 | 2.6 | 7.8 | 0.00 | 0.00 | 0.00 | 46 | 1008.8 |
| 20260505214538 | 79 | 9 | 2.6 | 6.1 | 0.00 | 0.00 | 0.00 | 46 | 1008.9 |
| 20260505213028 | 78 | 15 | 2.6 | 7.8 | 0.00 | 0.00 | 0.00 | 46 | 1009.0 |
| 20260505211546 | 79 | 8 | 3.5 | 8.7 | 0.00 | 0.00 | 0.00 | 46 | 1009.1 |
| 20260505210039 | 79 | 1 | 2.6 | 7.0 | 0.00 | 0.00 | 0.00 | 46 | 1009.2 |
| 20260505204552 | 79 | 354 | 2.6 | 6.1 | 0.00 | 0.00 | 0.00 | 45 | 1009.3 |
| 20260505203039 | 78 | 335 | 1.7 | 7.0 | 0.00 | 0.00 | 0.00 | 46 | 1009.4 |
| 20260505201530 | 78 | 349 | 1.7 | 7.0 | 0.00 | 0.00 | 0.00 | 46 | 1009.5 |
| 20260505200038 | 77 | 337 | 1.7 | 7.0 | 0.00 | 0.00 | 0.00 | 46 | 1009.6 |
| 20260505194530 | 77 | 332 | 1.7 | 6.1 | 0.00 | 0.00 | 0.00 | 45 | 1009.8 |
| 20260505193035 | 77 | 334 | 0.9 | 7.8 | 0.00 | 0.00 | 0.00 | 47 | 1009.8 |
| 20260505190115 | 75 | 307 | 2.6 | 7.0 | 0.00 | 0.00 | 0.00 | 49 | 1010.0 |
| 20260505184557 | 73 | 323 | 2.6 | 7.0 | 0.00 | 0.00 | 0.00 | 51 | 1010.1 |
| 20260505183035 | 73 | 304 | 2.6 | 9.6 | 0.00 | 0.00 | 0.00 | 51 | 1010.2 |
| 20260505181536 | 72 | 307 | 2.6 | 9.6 | 0.00 | 0.00 | 0.00 | 52 | 1010.2 |
| 20260505174530 | 71 | 311 | 2.6 | 7.8 | 0.00 | 0.00 | 0.00 | 54 | 1010.3 |
| 20260505173030 | 71 | 324 | 2.6 | 7.8 | 0.00 | 0.00 | 0.00 | 55 | 1010.1 |
| 20260505171529 | 70 | 334 | 2.6 | 7.8 | 0.00 | 0.00 | 0.00 | 56 | 1010.1 |
| 20260505170029 | 69 | 330 | 2.6 | 7.8 | 0.00 | 0.00 | 0.00 | 57 | 1010.1 |
| 20260505163036 | 68 | 330 | 1.7 | 6.1 | 0.00 | 0.00 | 0.00 | 61 | 1010.1 |
| 20260505161535 | 67 | 37 | 0.9 | 7.0 | 0.00 | 0.00 | 0.00 | 63 | 1010.2 |
| 20260505151538 | 63 | 124 | 0.9 | 3.5 | 0.00 | 0.00 | 0.00 | 72 | 1010.0 |
| 20260505140107 | 52 | 209 | 0.0 | 0.0 | 0.00 | 0.00 | 0.00 | 88 | 1009.3 |
| 20260505130147 | 53 | 247 | 0.0 | 0.0 | 0.00 | 0.00 | 0.00 | 84 | 1008.4 |
| 20260505123033 | 54 | 247 | 0.0 | 0.9 | 0.00 | 0.00 | 0.00 | 83 | 1008.3 |
| 20260505120115 | 55 | 247 | 0.0 | 1.7 | 0.00 | 0.00 | 0.00 | 80 | 1008.2 |
| 20260505114533 | 56 | 247 | 0.0 | 0.9 | 0.00 | 0.00 | 0.00 | 79 | 1008.1 |
| 20260505113032 | 56 | 247 | 0.0 | 0.9 | 0.00 | 0.00 | 0.00 | 78 | 1008.0 |
| 20260505111532 | 57 | 294 | 0.0 | 1.7 | 0.00 | 0.00 | 0.00 | 75 | 1007.9 |
| 20260505100107 | 59 | 316 | 0.9 | 6.1 | 0.00 | 0.00 | 0.00 | 76 | 1007.4 |
| 20260505094648 | 58 | 282 | 0.0 | 3.5 | 0.00 | 0.00 | 0.00 | 74 | 1007.3 |
| 20260505093037 | 59 | 329 | 0.0 | 0.0 | 0.00 | 0.00 | 0.00 | 71 | 1007.2 |
| 20260505091539 | 60 | 339 | 0.0 | 6.1 | 0.00 | 0.00 | 0.00 | 68 | 1007.1 |
| 20260505090036 | 62 | 304 | 0.0 | 2.6 | 0.00 | 0.00 | 0.00 | 66 | 1007.1 |
| 20260505083031 | 64 | 308 | 0.0 | 2.6 | 0.00 | 0.00 | 0.00 | 64 | 1007.0 |
| 20260505081530 | 64 | 312 | 0.9 | 4.3 | 0.00 | 0.00 | 0.00 | 64 | 1007.0 |
| 20260505080030 | 64 | 294 | 0.9 | 5.2 | 0.00 | 0.00 | 0.00 | 64 | 1007.0 |
| 20260505074615 | 65 | 310 | 0.0 | 4.3 | 0.00 | 0.00 | 0.00 | 62 | 1006.9 |
| 20260505073032 | 66 | 310 | 0.9 | 6.1 | 0.00 | 0.00 | 0.00 | 61 | 1006.8 |
| 20260505071549 | 66 | 303 | 0.9 | 7.8 | 0.00 | 0.00 | 0.00 | 60 | 1006.6 |
| 20260505070031 | 66 | 292 | 0.9 | 6.1 | 0.00 | 0.00 | 0.00 | 59 | 1006.6 |
| 20260505064532 | 67 | 281 | 0.9 | 7.8 | 0.00 | 0.00 | 0.00 | 57 | 1006.5 |
| 20260505063030 | 68 | 280 | 1.7 | 6.1 | 0.00 | 0.00 | 0.00 | 56 | 1006.4 |
| 20260505060036 | 68 | 292 | 1.7 | 6.1 | 0.00 | 0.00 | 0.00 | 53 | 1006.1 |
| 20260505054534 | 69 | 281 | 2.6 | 11.3 | 0.00 | 0.00 | 0.00 | 51 | 1005.9 |
| 20260505051536 | 70 | 284 | 3.5 | 9.6 | 0.00 | 0.00 | 0.00 | 50 | 1005.8 |
| 20260505050128 | 70 | 286 | 3.5 | 13.9 | 0.00 | 0.00 | 0.00 | 48 | 1005.8 |
| 20260505040054 | 71 | 275 | 4.3 | 10.4 | 0.00 | 0.00 | 0.00 | 45 | 1004.9 |
| 20260505034549 | 72 | 275 | 4.3 | 13.9 | 0.00 | 0.00 | 0.00 | 45 | 1004.7 |
| 20260505031528 | 73 | 272 | 3.5 | 12.2 | 0.00 | 0.00 | 0.00 | 45 | 1004.4 |
| 20260505024704 | 74 | 264 | 3.5 | 10.4 | 0.00 | 0.00 | 0.00 | 43 | 1004.1 |
| 20260505023036 | 75 | 264 | 4.3 | 11.3 | 0.00 | 0.00 | 0.00 | 41 | 1004.0 |
| 20260505014533 | 79 | 254 | 2.6 | 11.3 | 0.00 | 0.00 | 0.00 | 37 | 1004.0 |
| 20260505011546 | 81 | 281 | 2.6 | 8.7 | 0.00 | 0.00 | 0.00 | 37 | 1003.9 |
| 20260505010107 | 81 | 288 | 2.6 | 9.6 | 0.00 | 0.00 | 0.00 | 38 | 1003.9 |
| 20260505004530 | 82 | 288 | 1.7 | 6.1 | 0.00 | 0.00 | 0.00 | 38 | 1004.0 |
| 20260505003051 | 83 | 298 | 1.7 | 7.8 | 0.00 | 0.00 | 0.00 | 38 | 1004.0 |
| 20260505001537 | 83 | 309 | 2.6 | 7.8 | 0.00 | 0.00 | 0.00 | 38 | 1004.0 |
| 20260505000034 | 83 | 298 | 2.6 | 11.3 | 0.00 | 0.00 | 0.00 | 37 | 1004.0 |
| 20260504234532 | 84 | 301 | 2.6 | 9.6 | 0.00 | 0.00 | 0.00 | 37 | 1004.0 |
| 20260504233047 | 84 | 295 | 2.6 | 9.6 | 0.00 | 0.00 | 0.00 | 36 | 1004.1 |
| 20260504231549 | 85 | 303 | 2.6 | 7.8 | 0.00 | 0.00 | 0.00 | 36 | 1004.2 |
| 20260504230032 | 85 | 327 | 1.7 | 7.0 | 0.00 | 0.00 | 0.00 | 38 | 1004.3 |